Alexandria, MN

12:34 AM CDT on May 27, 2017 (GMT -0500)
Chandler

Weather History for KAXN - January, 2013

Change the Weather History Date:

Wednesday, January 30, 2013

  Actual Average Record
Temperature  
Mean Temperature 8 °F -  
Max Temperature 15 °F 19 °F 43 °F (1992)
Min Temperature 0 °F -1 °F -31 °F (1951)
Degree Days  
Heating Degree Days 57    
Moisture  
Dew Point 2 °F    
Average Humidity 77    
Maximum Humidity 85    
Minimum Humidity 73    
Precipitation  
Precipitation 0.00 in - - ()
Sea Level Pressure  
Sea Level Pressure 29.82 in    
Wind  
Wind Speed 16 mph (NW)    
Max Wind Speed 21 mph    
Max Gust Speed 28 mph    
Visibility 6 miles    
Events Snow    
Averages and records for this station are not official NWS values.
T = Trace of Precipitation, MM = Missing Value Source: NWS Daily Summary

Daily Weather History Graph

Daily Weather History Graph

Search for Another Location

Airport or City:

Trip Planner

Search our weather history database for the weather conditions in past years. The results will help you decide how hot, cold, wet, or windy it might be!

Date:

Astronomy

Jan. 30, 2013 Rise Set
Actual Time 7:45 AM CST 5:24 PM CST
Civil Twilight 7:13 AM CST 5:56 PM CST
Nautical Twilight 6:37 AM CST 6:32 PM CST
Astronomical Twilight 6:02 AM CST 7:07 PM CST
Moon 9:40 PM CST (1/30) 8:59 AM CST (1/30)
Length of Visible Light 10h 43m
Length of Day
9h 39m
Waning Gibbous, 87% of the Moon is Illuminated
Jan 30
Waning Gibbous
Feb 3
Last Quarter
Feb 10
New
Feb 17
First Quarter
Feb 25
Full

Hourly Weather History & Observations

Time (CST) Temp. Windchill Dew Point Humidity Pressure Visibility Wind Dir Wind Speed Gust Speed Precip Events Conditions
12:33 AM 15.8 °F 0.9 °F 10.4 °F 79% 29.79 in 10.0 mi NNW 15.0 mph 20.7 mph N/A   Overcast
12:53 AM 15.1 °F 0.5 °F 10.0 °F 80% 29.86 in 10.0 mi NNW 13.8 mph 23.0 mph N/A   Overcast
1:53 AM 12.9 °F -3.4 °F 8.1 °F 81% 29.85 in 10.0 mi NNW 16.1 mph - N/A   Overcast
2:53 AM 12.0 °F -4.5 °F 7.0 °F 80% 29.85 in 10.0 mi NNW 16.1 mph 21.9 mph N/A   Overcast
3:53 AM 10.9 °F -5.9 °F 5.0 °F 77% 29.86 in 10.0 mi NNW 16.1 mph - N/A   Overcast
4:53 AM 10.0 °F -7.1 °F 5.0 °F 80% 29.86 in 9.0 mi NNW 16.1 mph 25.3 mph N/A   Overcast
5:53 AM 10.0 °F -6.5 °F 3.9 °F 76% 29.84 in 10.0 mi NNW 15.0 mph 24.2 mph N/A   Overcast
6:53 AM 9.0 °F -7.3 °F 3.0 °F 77% 29.83 in 10.0 mi NNW 13.8 mph - N/A   Overcast
7:53 AM 7.0 °F -9.8 °F 1.0 °F 77% 29.84 in 10.0 mi NNW 13.8 mph - N/A   Overcast
8:53 AM 7.0 °F -11.0 °F 1.9 °F 80% 29.84 in 10.0 mi NNW 16.1 mph 23.0 mph N/A   Overcast
9:53 AM 7.0 °F -12.1 °F 1.9 °F 80% 29.85 in 10.0 mi NNW 18.4 mph - N/A   Overcast
10:53 AM 8.1 °F -9.0 °F 3.0 °F 80% 29.85 in 10.0 mi NNW 15.0 mph 21.9 mph N/A   Overcast
11:53 AM 9.0 °F -8.5 °F 3.0 °F 77% 29.84 in 10.0 mi NNW 16.1 mph - N/A   Overcast
12:02 PM 8.6 °F -7.0 °F 3.2 °F 79% 29.75 in 10.0 mi NNW 12.7 mph - N/A   Overcast
12:53 PM 9.0 °F -9.5 °F 3.0 °F 77% 29.83 in 2.5 mi NW 18.4 mph 24.2 mph N/A   Haze
1:09 PM 10.4 °F -7.2 °F 3.2 °F 73% 29.73 in 3.0 mi NW 17.3 mph - N/A   Haze
1:25 PM 10.4 °F -7.2 °F 3.2 °F 73% 29.73 in 2.0 mi NW 17.3 mph - N/A   Haze
1:35 PM 10.4 °F -7.7 °F 3.2 °F 73% 29.73 in 5.0 mi NW 18.4 mph - N/A   Haze
1:53 PM 10.0 °F -6.5 °F 3.9 °F 76% 29.82 in 4.0 mi NW 15.0 mph - N/A   Haze
2:53 PM 9.0 °F -10.5 °F 1.9 °F 73% 29.83 in 5.0 mi NW 20.7 mph - N/A   Haze
3:53 PM 9.0 °F -9.5 °F 1.9 °F 73% 29.83 in 8.0 mi NW 18.4 mph - N/A   Overcast
4:53 PM 8.1 °F -9.0 °F 1.0 °F 73% 29.84 in 6.0 mi NW 15.0 mph 27.6 mph N/A   Haze
5:20 PM 8.6 °F -10.5 °F 1.4 °F 73% 29.74 in 2.5 mi NW 19.6 mph - N/A   Haze
5:29 PM 8.6 °F -8.9 °F 1.4 °F 73% 29.75 in 4.0 mi NW 16.1 mph - N/A   Haze
5:53 PM 7.0 °F -9.1 °F 1.0 °F 77% 29.85 in 7.0 mi WNW 12.7 mph - N/A   Overcast
6:31 PM 6.8 °F -10.7 °F 1.4 °F 79% 29.75 in 2.5 mi NW 15.0 mph - 0.00 in Snow Light Snow
6:38 PM 5.0 °F -11.6 °F 1.4 °F 85% 29.75 in 3.0 mi NW 12.7 mph - 0.00 in   Overcast
6:53 PM 5.0 °F -13.6 °F -0.0 °F 80% 29.85 in 4.0 mi WNW 16.1 mph - 0.00 in   Haze
7:17 PM 5.0 °F -14.2 °F -0.4 °F 78% 29.75 in 2.0 mi WNW 17.3 mph - N/A   Haze
7:53 PM 3.0 °F -16.7 °F -0.9 °F 84% 29.86 in 3.0 mi WNW 17.3 mph - 0.00 in   Overcast
8:10 PM 3.2 °F -16.5 °F -2.2 °F 78% 29.75 in 2.5 mi WNW 17.3 mph - N/A   Haze
8:21 PM 3.2 °F -17.1 °F -2.2 °F 78% 29.76 in 3.0 mi NW 18.4 mph 25.3 mph N/A   Haze
8:53 PM 1.9 °F -16.9 °F -2.9 °F 80% 29.87 in 4.0 mi WNW 15.0 mph - N/A   Haze
9:53 PM 1.0 °F -19.9 °F -4.0 °F 79% 29.87 in 8.0 mi NW 18.4 mph - N/A   Overcast
10:53 PM 1.0 °F -18.0 °F -5.1 °F 75% 29.88 in 6.0 mi WNW 15.0 mph - N/A   Haze
11:53 PM -0.0 °F -20.1 °F -6.0 °F 76% 29.89 in 5.0 mi NW 16.1 mph - N/A   Haze